Location: Peterborough
(44.3091°N, 78.3197°W)
Time: 14:51:36
(UTC-04:00)

Envisat - Pass Details

Date: 23 April 2026
Orbit: 761 x 762 km, 98.4° (Epoch: 17 May)

Event Time Altitude Azimuth Distance (km) Brightness Sun altitude
Rises 05:34:12 0° 356° (N) 3,234 6.6 -7.8°
Reaches altitude 10° 05:37:36 10° 332° (NNW) 2,303 5.5 -7.2°
Maximum altitude 05:40:06 14° 302° (WNW) 2,037 4.9 -6.8°
Drops below altitude 10° 05:42:36 10° 272° (W) 2,295 4.9 -6.4°
Enters shadow 05:43:54 - 261° (W) 2,591 5.1 -6.2°
